Flag for Brazil Weather past 2 weeks in Volta Redonda, Rio de Janeiro, Brazil

Now
72 °F

Passing clouds.


Feels Like: 71 °F
Forecast: 60 / 78 °F
Wind: 5 mph from Southeast

Location: Galeao

Current Time: Jul 29, 2015 at 11:32:27 PM

Latest Report: Jul 29, 2015 at 11:00 PM


Visibility: N/A

Pressure: 30.21 "Hg

Humidity: 83%

Dew point: 66 °F

Location of Volta RedondaLocation

Historic Weather in Volta Redonda — Graph

°F

Volta Redonda temperature yesterday

Maximum temperature yesterday: 77 °F (at 12:00 PM)
Minimum temperature yesterday: 66 °F (at 6:00 AM)
Average temperature yesterday: 72 °F

Past Weeks' High & Low Weather Summary

 TemperatureHumidityPressure
High88 °F (Jul 20, 3:00 PM)94% (Jul 15, 1:00 AM)30.30 "Hg (Jul 15, 1:00 AM)
Low63 °F (Jul 24, 5:00 AM)35% (Jul 21, 1:00 PM)29.92 "Hg (Jul 21, 4:00 AM)
Average72 °F78%30.12 "Hg
* Reported Jul 14 10:00 PM — Jul 29 10:00 PM, Volta Redonda, Weather by CustomWeather, © 2015

Note: Actual official high and low records may vary slightly from our data, if they occured in-between our weather recording intervals... More about our weather records

Advertising

Volta Redonda weather history for previous 24 hours

 ConditionsComfort  
Time TempWeatherWind HumidityBarometerVisibility
10:00 PM
Wed, Jul 29
72 °FPartly cloudy.6 mph83%30.21 "HgN/A
9:00 PM72 °FPassing clouds.10 mph83%30.18 "HgN/A
8:00 PM72 °FPartly cloudy.9 mph78%30.18 "Hg5 mi
7:00 PM72 °FPartly cloudy.9 mph78%30.18 "Hg5 mi
6:00 PM73 °FPartly cloudy.9 mph74%30.15 "Hg5 mi
5:00 PM73 °FPartly cloudy.10 mph74%30.12 "Hg6 mi
4:00 PM75 °FBroken clouds.10 mph69%30.12 "Hg6 mi
3:00 PM75 °FBroken clouds.12 mph74%30.12 "Hg4 mi
2:00 PM75 °FBroken clouds.10 mph69%30.12 "Hg4 mi
1:00 PM77 °FBroken clouds.6 mph69%30.15 "Hg4 mi
12:00 PM77 °FBroken clouds.5 mph74%30.18 "Hg3 mi
11:00 AM73 °FPartly sunny.3 mph78%30.21 "Hg2 mi
10:00 AM73 °FFog.5 mph78%30.21 "Hg2 mi
9:00 AM72 °FFog.No wind83%30.18 "Hg2 mi
8:00 AM72 °FFog.3 mph83%30.18 "Hg2 mi
7:00 AM70 °FFog.No wind88%30.15 "Hg3 mi
6:00 AM70 °FPartly sunny.2 mph88%30.12 "Hg4 mi
5:00 AM70 °FPassing clouds.3 mph88%30.12 "Hg4 mi
4:00 AM70 °FFog.No wind88%30.12 "Hg3 mi
3:00 AM70 °FMostly cloudy.8 mph88%30.12 "Hg4 mi
2:00 AM70 °FMostly cloudy.5 mph88%30.12 "Hg4 mi
1:00 AM70 °FFog.7 mph88%30.12 "Hg2 mi
12:00 AM70 °FPartly cloudy.7 mph88%30.15 "Hg2 mi
11:00 PM
Tue, Jul 28
70 °FFog.6 mph94%30.15 "Hg2 mi
Weather by CustomWeather, © 2015

See weather overviewHow to use our weather pages